Location: Albuquerque Trailhead
(34.7934°N, 106.3736°W)
Time: 22:53:31
(UTC+00:00)

Cosmos 2333 Rocket - Pass Details

Date: 20 June 2021
Orbit: 841 x 861 km, 70.8° (Epoch: 01 August)

Event Time Altitude Azimuth Distance (km) Brightness Sun altitude
Exits shadow 03:16:12 11° 149° (SSE) 2,451 4.0 -10.1°
Maximum altitude 03:20:22 22° 101° (E) 1,777 3.4 -10.8°
Drops below altitude 10° 03:24:39 10° 52° (NE) 2,490 4.5 -11.5°
Sets 03:27:37 0° 38° (NE) 3,428 5.4 -11.9°
